Погода в Акатове

Россия / Смоленская область     55˚35′36″N   35˚11′41″E
темп.,
°C
ветер,
м/с
пор.,
м/с
влажн.,
%
обл.,
%
осадки,
мм/ч
давл.,
гПа
погр.,
м
17 января, вс
вс1700:00−18˚ссз4894100 0.1 1011401
03:00−21˚ссз3897100 0.1 1013320
06:00−24˚с369898 0.0 1014159
09:00−25˚с239984 0.0 101635
12:00−21˚ссв249672 0.0 1017238
15:00−20˚с239679 0.0 1018192
18:00−23˚с229860 0.0 101920
21:00−24˚ссв129930 0.0 102020
18 января, пн
пн1800:00−24˚с12992 0.0 102020
03:00−24˚с111001 0.0 102120
06:00−24˚зюз1210019 0.0 102020
09:00−24˚сз229943 0.0 102121
12:00−18˚сз11934 0.0 102085
15:00−17˚юз129622 0.0 101981
18:00−19˚зсз229789 0.0 101923
21:00−19˚сз119994 0.0 101920
19 января, вт
вт1900:00−17˚юз1198100 0.1 101924
03:00−17˚сз1297100 0.1 101822
06:00−16˚сз1197100 0.1 101720
09:00−16˚ссз1197100 0.2 101820
12:00−13˚ссз129397 0.1 1017194
15:00−12˚сз239598 0.1 1017221
18:00−14˚ссз229791 0.1 101822
21:00−15˚ссз229888 0.1 101920
20 января, ср
ср2000:00−17˚сз129975 0.0 101920
03:00−17˚зсз129984 0.1 102020
06:00−18˚зсз2210096 0.0 102120
09:00−18˚з229994 0.1 102220
12:00−14˚зюз229682 0.0 1022110
15:00−13˚юз239572 0.0 1022124
18:00−16˚юз23977 0.0 102328
21:00−16˚ююз33973 0.0 102354
21 января, чт
чт2100:00−17˚ююз369620 0.0 1023128
03:00−16˚ю499548 0.0 1022174
06:00−16˚ю4119371 0.0 1020227
09:00−13˚ю5119386 0.0 1018310
12:00−10˚ююз61193100 0.2 1016419
15:00−8˚ююз61194100 0.8 1014500
18:00−7˚ююз51294100 0.7 1014478
21:00−5˚юз41195100 1.1 1013447